Location: *
(39.6167°S, 171.5333°W)
Time: 06:04:16
(UTC+00:00)

SMAP - Pass Details

Date: 13 May 2021
Orbit: 681 x 683 km, 98.1° (Epoch: 16 June)

Event Time Altitude Azimuth Distance (km) Brightness Sun altitude
Rises 16:21:08 0° 31° (NNE) 3,038 6.9 -23.3°
Reaches altitude 10° 16:23:26 10° 38° (NE) 2,131 6.2 -22.9°
Maximum altitude 16:27:50 43° 108° (ESE) 964 4.2 -22.1°
Drops below altitude 10° 16:32:19 10° 179° (S) 2,159 5.6 -21.2°
Sets 16:34:39 0° 185° (S) 3,083 6.3 -20.8°
